Location: Shepherdstown, WV
(39.4326°N, 77.8042°W)
Time: 19:55:21
(UTC-04:00)

Transit 2A - Pass Details

Date: 07 August 2021
Orbit: 594 x 964 km, 66.7° (Epoch: 24 September)

Event Time Altitude Azimuth Distance (km) Brightness Sun altitude
Exits shadow 04:31:30 - 159° (SSE) 2,436 8.4 -18.2°
Reaches altitude 10° 04:33:16 10° 144° (SE) 1,938 8.1 -17.9°
Maximum altitude 04:35:55 16° 106° (ESE) 1,606 8.1 -17.5°
Drops below altitude 10° 04:38:40 10° 67° (ENE) 2,012 9.3 -17.1°
Sets 04:41:46 0° 47° (NE) 2,984 10.9 -16.6°
